Location: Casteau
(50.5142°N, 4.0161°E)
Time: 06:03:33
(UTC+00:00)

OBJECT-B - Pass Details

Date: 18 September 2020
Orbit: 421 x 433 km, 97.0° (Epoch: 09 October)

Event Time Altitude Azimuth Distance (km) Brightness Sun altitude
Exits shadow 19:01:25 20° 102° (ESE) 1,036 2.1 -12.0°
Maximum altitude 19:02:36 25° 68° (ENE) 892 2.0 -12.1°
Drops below altitude 10° 19:05:20 10° 11° (N) 1,525 3.7 -12.5°
Sets 19:07:34 0° 358° (N) 2,398 4.9 -12.9°
